Time,TemperatureF,DewpointF,PressureIn,WindDirection,WindDirectionDegrees,WindSpeedMPH,WindSpeedGustMPH,Humidity,HourlyPrecipIn,Conditions,Clouds,dailyrainin,SoftwareType,DateUTC
2013-05-21 00:03:00,64.0,56.0,29.95,West,272,0.0,1.0,75,0.00,,,0.00,,2013-05-21 04:03:00,
2013-05-21 00:13:00,64.0,56.0,29.95,West,272,0.0,1.0,75,0.00,,,0.00,,2013-05-21 04:13:00,
2013-05-21 00:23:00,64.0,56.0,29.95,West,272,0.0,1.0,75,0.00,,,0.00,,2013-05-21 04:23:00,
2013-05-21 00:33:00,64.0,56.0,29.95,West,272,0.0,1.0,75,0.00,,,0.00,,2013-05-21 04:33:00,
2013-05-21 00:42:00,64.0,56.0,29.95,West,272,0.0,1.0,75,0.00,,,0.00,,2013-05-21 04:42:00,
2013-05-21 00:52:00,63.0,55.0,29.95,West,272,1.0,2.0,75,0.00,,,0.00,,2013-05-21 04:52:00,
2013-05-21 01:02:00,63.0,55.0,29.95,West,274,0.0,1.0,75,0.00,,,0.00,,2013-05-21 05:02:00,
2013-05-21 01:12:00,63.0,55.0,29.95,West,274,0.0,1.0,75,0.00,,,0.00,,2013-05-21 05:12:00,
2013-05-21 01:22:00,63.0,55.0,29.95,West,274,0.0,2.0,75,0.00,,,0.00,,2013-05-21 05:22:00,
2013-05-21 01:32:00,62.0,54.0,29.93,West,274,0.0,0.0,75,0.00,,,0.00,,2013-05-21 05:32:00,
2013-05-21 01:42:00,62.0,54.0,29.93,West,274,0.0,0.0,76,0.00,,,0.00,,2013-05-21 05:42:00,
2013-05-21 01:51:00,62.0,54.0,29.93,West,274,0.0,0.0,76,0.00,,,0.00,,2013-05-21 05:51:00,
2013-05-21 02:02:00,62.0,54.0,29.93,West,274,0.0,2.0,76,0.00,,,0.00,,2013-05-21 06:02:00,
2013-05-21 02:12:00,62.0,54.0,29.93,West,274,0.0,2.0,76,0.00,,,0.00,,2013-05-21 06:12:00,
2013-05-21 02:21:00,62.0,54.0,29.92,West,274,0.0,0.0,76,0.00,,,0.00,,2013-05-21 06:21:00,
2013-05-21 02:32:00,61.0,53.0,29.93,West,274,1.0,2.0,76,0.00,,,0.00,,2013-05-21 06:32:00,
2013-05-21 02:42:00,61.0,53.0,29.93,West,274,1.0,2.0,76,0.00,,,0.00,,2013-05-21 06:42:00,
2013-05-21 02:52:00,61.0,53.0,29.93,West,274,0.0,3.0,76,0.00,,,0.00,,2013-05-21 06:52:00,
2013-05-21 03:01:00,62.0,54.0,29.92,West,273,0.0,0.0,76,0.00,,,0.00,,2013-05-21 07:01:00,
2013-05-21 03:11:00,62.0,54.0,29.92,West,273,0.0,0.0,76,0.00,,,0.00,,2013-05-21 07:11:00,
2013-05-21 03:22:00,61.0,53.0,29.91,West,274,0.0,2.0,76,0.00,,,0.00,,2013-05-21 07:22:00,
2013-05-21 03:32:00,61.0,53.0,29.91,West,274,0.0,0.0,76,0.00,,,0.00,,2013-05-21 07:32:00,
2013-05-21 03:41:00,61.0,53.0,29.91,West,274,0.0,0.0,76,0.00,,,0.00,,2013-05-21 07:41:00,
2013-05-21 03:52:00,61.0,53.0,29.90,West,274,0.0,1.0,76,0.00,,,0.00,,2013-05-21 07:52:00,
2013-05-21 04:02:00,61.0,53.0,29.90,West,274,0.0,0.0,76,0.00,,,0.00,,2013-05-21 08:02:00,
2013-05-21 04:11:00,61.0,53.0,29.91,West,274,0.0,2.0,76,0.00,,,0.00,,2013-05-21 08:11:00,
2013-05-21 04:21:00,61.0,53.0,29.91,West,274,0.0,2.0,76,0.00,,,0.00,,2013-05-21 08:21:00,
2013-05-21 04:31:00,61.0,54.0,29.91,West,274,0.0,1.0,77,0.00,,,0.00,,2013-05-21 08:31:00,
2013-05-21 04:41:00,61.0,54.0,29.91,West,274,0.0,1.0,77,0.00,,,0.00,,2013-05-21 08:41:00,
2013-05-21 04:52:00,61.0,54.0,29.91,West,274,0.0,1.0,77,0.00,,,0.00,,2013-05-21 08:52:00,
2013-05-21 05:01:00,61.0,54.0,29.91,West,273,0.0,2.0,77,0.00,,,0.00,,2013-05-21 09:01:00,
2013-05-21 05:11:00,61.0,54.0,29.91,West,273,0.0,2.0,77,0.00,,,0.00,,2013-05-21 09:11:00,
2013-05-21 05:21:00,61.0,54.0,29.92,West,274,0.0,0.0,77,0.00,,,0.00,,2013-05-21 09:21:00,
2013-05-21 05:33:00,61.0,54.0,29.91,West,274,0.0,0.0,77,0.00,,,0.00,,2013-05-21 09:33:00,
2013-05-21 05:42:00,61.0,54.0,29.91,West,274,0.0,0.0,77,0.00,,,0.00,,2013-05-21 09:42:00,
2013-05-21 05:52:00,61.0,54.0,29.91,West,274,0.0,0.0,77,0.00,,,0.00,,2013-05-21 09:52:00,
2013-05-21 06:03:00,60.0,53.0,29.91,West,274,0.0,0.0,77,0.00,,,0.00,,2013-05-21 10:03:00,
2013-05-21 06:12:00,60.0,53.0,29.91,West,274,0.0,0.0,77,0.00,,,0.00,,2013-05-21 10:12:00,
2013-05-21 06:22:00,60.0,53.0,29.90,West,273,0.0,2.0,77,0.00,,,0.00,,2013-05-21 10:22:00,
2013-05-21 06:33:00,60.0,53.0,29.91,West,273,1.0,3.0,77,0.00,,,0.00,,2013-05-21 10:33:00,
2013-05-21 06:42:00,60.0,53.0,29.91,West,273,1.0,3.0,77,0.00,,,0.00,,2013-05-21 10:42:00,
2013-05-21 06:52:00,61.0,54.0,29.91,West,274,0.0,3.0,77,0.00,,,0.00,,2013-05-21 10:52:00,
2013-05-21 07:02:00,63.0,56.0,29.92,NW,326,0.0,5.0,78,0.00,,,0.00,,2013-05-21 11:02:00,
2013-05-21 07:12:00,63.0,56.0,29.92,NW,326,0.0,5.0,78,0.00,,,0.00,,2013-05-21 11:12:00,
2013-05-21 07:22:00,65.0,58.0,29.93,NNW,328,2.0,6.0,79,0.00,,,0.00,,2013-05-21 11:22:00,
2013-05-21 07:32:00,66.0,59.0,29.92,West,280,0.0,5.0,79,0.00,,,0.00,,2013-05-21 11:32:00,
2013-05-21 07:42:00,66.0,59.0,29.92,West,280,0.0,5.0,79,0.00,,,0.00,,2013-05-21 11:42:00,
2013-05-21 07:51:00,66.0,59.0,29.92,NW,320,0.0,5.0,79,0.00,,,0.00,,2013-05-21 11:51:00,
2013-05-21 08:01:00,67.0,60.0,29.92,West,261,0.0,7.0,78,0.00,,,0.00,,2013-05-21 12:01:00,
2013-05-21 08:11:00,67.0,60.0,29.92,West,261,0.0,7.0,78,0.00,,,0.00,,2013-05-21 12:11:00,
2013-05-21 08:21:00,67.0,60.0,29.91,SW,235,2.0,12.0,78,0.00,,,0.00,,2013-05-21 12:21:00,
2013-05-21 08:32:00,69.0,61.0,29.92,WSW,242,3.0,9.0,76,0.00,,,0.00,,2013-05-21 12:32:00,
2013-05-21 08:42:00,69.0,61.0,29.92,WSW,242,3.0,9.0,76,0.00,,,0.00,,2013-05-21 12:42:00,
2013-05-21 08:51:00,70.0,62.0,29.93,WNW,286,3.0,8.0,76,0.00,,,0.00,,2013-05-21 12:51:00,
2013-05-21 09:01:00,72.0,64.0,29.92,WNW,292,2.0,8.0,75,0.00,,,0.00,,2013-05-21 13:01:00,
2013-05-21 09:12:00,72.0,64.0,29.92,WNW,292,2.0,8.0,75,0.00,,,0.00,,2013-05-21 13:12:00,
2013-05-21 09:22:00,73.0,65.0,29.92,WNW,296,1.0,8.0,75,0.00,,,0.00,,2013-05-21 13:22:00,
2013-05-21 09:32:00,74.0,66.0,29.91,WNW,303,2.0,7.0,76,0.00,,,0.00,,2013-05-21 13:32:00,
2013-05-21 09:42:00,74.0,66.0,29.91,WNW,303,2.0,7.0,76,0.00,,,0.00,,2013-05-21 13:42:00,
2013-05-21 09:52:00,76.0,67.0,29.91,SSW,209,5.0,8.0,75,0.00,,,0.00,,2013-05-21 13:52:00,
2013-05-21 10:02:00,77.0,68.0,29.91,WNW,298,2.0,8.0,75,0.00,,,0.00,,2013-05-21 14:02:00,
2013-05-21 10:11:00,77.0,68.0,29.91,WNW,298,2.0,8.0,75,0.00,,,0.00,,2013-05-21 14:11:00,
2013-05-21 10:21:00,77.0,68.0,29.91,North,7,3.0,9.0,73,0.00,,,0.00,,2013-05-21 14:21:00,
2013-05-21 10:32:00,78.0,69.0,29.91,NNW,339,3.0,9.0,73,0.00,,,0.00,,2013-05-21 14:32:00,
2013-05-21 10:42:00,78.0,69.0,29.91,NNW,339,3.0,9.0,73,0.00,,,0.00,,2013-05-21 14:42:00,
2013-05-21 10:51:00,79.0,69.0,29.91,NW,316,5.0,9.0,71,0.00,,,0.00,,2013-05-21 14:51:00,
2013-05-21 11:01:00,80.0,70.0,29.90,NNW,328,2.0,9.0,72,0.00,,,0.00,,2013-05-21 15:01:00,
2013-05-21 11:11:00,80.0,70.0,29.89,SW,226,3.0,8.0,71,0.00,,,0.00,,2013-05-21 15:11:00,
2013-05-21 11:21:00,80.0,70.0,29.89,SW,226,3.0,8.0,71,0.00,,,0.00,,2013-05-21 15:21:00,
2013-05-21 11:33:00,80.0,70.0,29.89,West,265,3.0,7.0,71,0.00,,,0.00,,2013-05-21 15:33:00,
2013-05-21 11:42:00,80.0,70.0,29.89,West,270,1.0,7.0,72,0.00,,,0.00,,2013-05-21 15:42:00,
2013-05-21 11:52:00,80.0,70.0,29.89,West,270,1.0,7.0,72,0.00,,,0.00,,2013-05-21 15:52:00,
2013-05-21 12:03:00,82.0,72.0,29.88,South,171,2.0,6.0,72,0.00,,,0.00,,2013-05-21 16:03:00,
2013-05-21 12:13:00,82.0,72.0,29.88,WSW,246,5.0,12.0,71,0.00,,,0.00,,2013-05-21 16:13:00,
2013-05-21 12:23:00,82.0,72.0,29.88,WSW,246,5.0,12.0,71,0.00,,,0.00,,2013-05-21 16:23:00,
2013-05-21 12:32:00,83.0,71.0,29.86,WSW,241,3.0,6.0,67,0.00,,,0.00,,2013-05-21 16:32:00,
2013-05-21 12:42:00,84.0,72.0,29.86,SW,215,2.0,9.0,67,0.00,,,0.00,,2013-05-21 16:42:00,
2013-05-21 12:52:00,84.0,72.0,29.86,SW,215,2.0,9.0,67,0.00,,,0.00,,2013-05-21 16:52:00,
2013-05-21 13:02:00,85.0,73.0,29.86,SW,219,4.0,12.0,68,0.00,,,0.00,,2013-05-21 17:02:00,
2013-05-21 13:12:00,85.0,72.0,29.85,SW,220,4.0,12.0,66,0.00,,,0.00,,2013-05-21 17:12:00,
2013-05-21 13:23:00,85.0,72.0,29.85,SW,220,4.0,12.0,66,0.00,,,0.00,,2013-05-21 17:23:00,
2013-05-21 13:33:00,87.0,75.0,29.85,West,274,3.0,7.0,67,0.00,,,0.00,,2013-05-21 17:33:00,
2013-05-21 13:43:00,87.0,73.0,29.84,West,275,4.0,8.0,63,0.00,,,0.00,,2013-05-21 17:43:00,
2013-05-21 13:52:00,87.0,73.0,29.84,West,275,4.0,8.0,63,0.00,,,0.00,,2013-05-21 17:52:00,
2013-05-21 14:02:00,88.0,72.0,29.83,SW,223,4.0,12.0,60,0.00,,,0.00,,2013-05-21 18:02:00,
2013-05-21 14:12:00,88.0,72.0,29.83,SW,223,4.0,12.0,60,0.00,,,0.00,,2013-05-21 18:12:00,
2013-05-21 14:22:00,88.0,73.0,29.83,West,274,1.0,12.0,61,0.00,,,0.00,,2013-05-21 18:22:00,
2013-05-21 14:32:00,89.0,73.0,29.83,SW,233,3.0,9.0,59,0.00,,,0.00,,2013-05-21 18:32:00,
2013-05-21 14:42:00,88.0,71.0,29.83,West,272,6.0,12.0,58,0.00,,,0.00,,2013-05-21 18:42:00,
2013-05-21 14:52:00,88.0,71.0,29.83,West,272,6.0,12.0,58,0.00,,,0.00,,2013-05-21 18:52:00,
2013-05-21 15:01:00,89.0,72.0,29.82,West,263,7.0,13.0,57,0.00,,,0.00,,2013-05-21 19:01:00,
2013-05-21 15:11:00,89.0,72.0,29.82,West,263,7.0,13.0,57,0.00,,,0.00,,2013-05-21 19:11:00,
2013-05-21 15:21:00,89.0,71.0,29.82,SSW,200,5.0,12.0,56,0.00,,,0.00,,2013-05-21 19:21:00,
2013-05-21 15:32:00,88.0,71.0,29.81,West,261,5.0,14.0,57,0.00,,,0.00,,2013-05-21 19:32:00,
2013-05-21 15:42:00,88.0,71.0,29.81,West,261,5.0,14.0,57,0.00,,,0.00,,2013-05-21 19:42:00,
2013-05-21 15:52:00,89.0,72.0,29.80,WSW,238,5.0,14.0,57,0.00,,,0.00,,2013-05-21 19:52:00,
2013-05-21 16:03:00,89.0,71.0,29.80,SSW,200,7.0,14.0,55,0.00,,,0.00,,2013-05-21 20:03:00,
2013-05-21 16:11:00,89.0,71.0,29.80,SSW,200,7.0,14.0,55,0.00,,,0.00,,2013-05-21 20:11:00,
2013-05-21 16:22:00,89.0,71.0,29.79,West,264,3.0,13.0,55,0.00,,,0.00,,2013-05-21 20:22:00,
2013-05-21 16:32:00,87.0,69.0,29.78,West,263,4.0,12.0,56,0.00,,,0.00,,2013-05-21 20:32:00,
2013-05-21 16:42:00,87.0,69.0,29.78,West,263,4.0,12.0,56,0.00,,,0.00,,2013-05-21 20:42:00,
2013-05-21 16:52:00,87.0,70.0,29.79,SSW,200,4.0,12.0,58,0.00,,,0.00,,2013-05-21 20:52:00,
2013-05-21 17:02:00,87.0,71.0,29.79,WSW,250,4.0,13.0,60,0.00,,,0.00,,2013-05-21 21:02:00,
2013-05-21 17:11:00,87.0,71.0,29.79,WSW,250,4.0,13.0,60,0.00,,,0.00,,2013-05-21 21:11:00,
2013-05-21 17:21:00,87.0,70.0,29.78,WSW,257,9.0,20.0,58,0.00,,,0.00,,2013-05-21 21:21:00,
2013-05-21 17:33:00,87.0,71.0,29.79,SW,219,6.0,13.0,59,0.00,,,0.00,,2013-05-21 21:33:00,
2013-05-21 17:43:00,87.0,71.0,29.78,SSW,200,5.0,17.0,59,0.00,,,0.00,,2013-05-21 21:43:00,
2013-05-21 17:53:00,87.0,71.0,29.78,SSW,200,5.0,17.0,59,0.00,,,0.00,,2013-05-21 21:53:00,
2013-05-21 18:02:00,87.0,71.0,29.79,West,261,4.0,10.0,60,0.00,,,0.00,,2013-05-21 22:02:00,
2013-05-21 18:12:00,87.0,71.0,29.79,West,261,4.0,10.0,60,0.00,,,0.00,,2013-05-21 22:12:00,
2013-05-21 18:23:00,87.0,71.0,29.78,WSW,255,2.0,14.0,59,0.00,,,0.00,,2013-05-21 22:23:00,
2013-05-21 18:33:00,86.0,69.0,29.78,West,267,2.0,10.0,58,0.00,,,0.00,,2013-05-21 22:33:00,
2013-05-21 18:42:00,86.0,69.0,29.78,West,267,2.0,10.0,58,0.00,,,0.00,,2013-05-21 22:42:00,
2013-05-21 18:52:00,86.0,70.0,29.78,WSW,244,4.0,10.0,59,0.00,,,0.00,,2013-05-21 22:52:00,
2013-05-21 19:02:00,85.0,70.0,29.78,WNW,296,2.0,10.0,61,0.00,,,0.00,,2013-05-21 23:02:00,
2013-05-21 19:12:00,85.0,70.0,29.78,WNW,296,2.0,10.0,61,0.00,,,0.00,,2013-05-21 23:12:00,
2013-05-21 19:22:00,85.0,70.0,29.78,West,280,3.0,8.0,61,0.00,,,0.00,,2013-05-21 23:22:00,
2013-05-21 19:32:00,84.0,70.0,29.78,SW,234,1.0,10.0,63,0.00,,,0.00,,2013-05-21 23:32:00,
2013-05-21 19:42:00,83.0,70.0,29.78,WSW,251,1.0,8.0,65,0.00,,,0.00,,2013-05-21 23:42:00,
2013-05-21 19:52:00,83.0,70.0,29.78,WSW,251,1.0,8.0,65,0.00,,,0.00,,2013-05-21 23:52:00,
2013-05-21 20:01:00,82.0,70.0,29.79,SW,236,2.0,10.0,68,0.00,,,0.00,,2013-05-22 00:01:00,
2013-05-21 20:11:00,81.0,70.0,29.79,SSW,200,4.0,10.0,70,0.00,,,0.00,,2013-05-22 00:11:00,
2013-05-21 20:21:00,81.0,70.0,29.79,SSW,200,4.0,10.0,70,0.00,,,0.00,,2013-05-22 00:21:00,
2013-05-21 20:32:00,80.0,70.0,29.79,WSW,255,2.0,10.0,71,0.00,,,0.00,,2013-05-22 00:32:00,
2013-05-21 20:41:00,80.0,70.0,29.79,WSW,255,2.0,10.0,71,0.00,,,0.00,,2013-05-22 00:41:00,
2013-05-21 20:51:00,79.0,69.0,29.80,WSW,251,1.0,7.0,72,0.00,,,0.00,,2013-05-22 00:51:00,
2013-05-21 21:01:00,78.0,69.0,29.80,SW,232,2.0,7.0,74,0.00,,,0.00,,2013-05-22 01:01:00,
2013-05-21 21:11:00,78.0,69.0,29.80,SW,232,2.0,7.0,74,0.00,,,0.00,,2013-05-22 01:11:00,
2013-05-21 21:21:00,77.0,68.0,29.80,SSW,200,2.0,7.0,74,0.00,,,0.00,,2013-05-22 01:21:00,
2013-05-21 21:32:00,76.0,67.0,29.79,West,261,3.0,7.0,75,0.00,,,0.00,,2013-05-22 01:32:00,
2013-05-21 21:42:00,75.0,67.0,29.79,WSW,247,2.0,8.0,75,0.00,,,0.00,,2013-05-22 01:42:00,
2013-05-21 21:52:00,75.0,67.0,29.79,WSW,247,2.0,8.0,75,0.00,,,0.00,,2013-05-22 01:52:00,
2013-05-21 22:02:00,75.0,67.0,29.80,WSW,241,1.0,7.0,75,0.00,,,0.00,,2013-05-22 02:02:00,
2013-05-21 22:11:00,75.0,67.0,29.80,WSW,241,1.0,7.0,75,0.00,,,0.00,,2013-05-22 02:11:00,
2013-05-21 22:21:00,74.0,66.0,29.79,SW,224,3.0,6.0,75,0.00,,,0.00,,2013-05-22 02:21:00,
2013-05-21 22:32:00,74.0,66.0,29.79,WSW,256,2.0,8.0,75,0.00,,,0.00,,2013-05-22 02:32:00,
2013-05-21 22:42:00,74.0,66.0,29.80,WSW,250,5.0,14.0,75,0.00,,,0.00,,2013-05-22 02:42:00,
2013-05-21 22:51:00,74.0,66.0,29.80,WSW,250,5.0,14.0,75,0.00,,,0.00,,2013-05-22 02:51:00,
2013-05-21 23:01:00,75.0,67.0,29.80,SW,224,4.0,8.0,75,0.00,,,0.00,,2013-05-22 03:01:00,
2013-05-21 23:11:00,75.0,67.0,29.80,WSW,252,3.0,8.0,75,0.00,,,0.00,,2013-05-22 03:11:00,
2013-05-21 23:21:00,75.0,67.0,29.80,WSW,252,3.0,8.0,75,0.00,,,0.00,,2013-05-22 03:21:00,
2013-05-21 23:33:00,75.0,67.0,29.80,SW,234,3.0,7.0,75,0.00,,,0.00,,2013-05-22 03:33:00,
2013-05-21 23:43:00,74.0,66.0,29.79,West,259,1.0,12.0,76,0.00,,,0.00,,2013-05-22 03:43:00,
2013-05-21 23:53:00,74.0,66.0,29.79,West,259,1.0,12.0,76,0.00,,,0.00,,2013-05-22 03:53:00,